Location: Carlisle
(34.5501°N, 84.5969°W)
Time: 13:37:50
(UTC+00:00)

Tiangong - Pass Details

Date: 03 December 2022
Orbit: 383 x 387 km, 41.5° (Epoch: 27 January)

Event Time Altitude Azimuth Distance (km) Brightness Sun altitude
Rises 23:23:07 0° 276° (W) 2,256 3.0 -11.3°
Reaches altitude 10° 23:25:23 10° 289° (WNW) 1,405 1.5 -11.8°
Maximum altitude 23:28:09 26° 350° (N) 792 -0.7 -12.3°
Enters shadow 23:29:46 18° 35° (NE) 1,047 -0.4 -12.6°
